AAL683 KJFK-KMIA

Flight info

Callsign AAL683
Flight time N/A
Altitude 36000
Route WAVEY EMJAY Q167 KALDA Q101 SKARP Y313 HOAGG BNFSH3
Aircraft B38M/M-SDE1FGHILORVWXY/HB1

Departure

Time 2026-05-06 16:05
Airport John F. Kennedy International Airport (KJFK)

Arrival

Time N/A
Airport Miami International Airport (KMIA)
Time Latitude Longitude Altitude Speed Heading
2026-05-06 15:16 40.64677 -73.79321 28 ft 0 kts 338°
2026-05-06 15:53 40.64676 -73.79321 26 ft 1 kts 338°
2026-05-06 15:53 40.64654 -73.79308 30 ft 4 kts 337°
2026-05-06 15:53 40.64633 -73.79297 30 ft 3 kts 336°
2026-05-06 15:53 40.64613 -73.79277 29 ft 4 kts 294°
2026-05-06 15:54 40.64610 -73.79244 32 ft 4 kts 261°
2026-05-06 15:54 40.64612 -73.79232 32 ft 0 kts 259°
2026-05-06 15:56 40.64611 -73.79236 32 ft 2 kts 258°
2026-05-06 15:57 40.64605 -73.79277 28 ft 8 kts 259°
2026-05-06 15:57 40.64612 -73.79383 28 ft 14 kts 277°
2026-05-06 15:57 40.64611 -73.79519 26 ft 16 kts 284°
2026-05-06 15:57 40.64694 -73.79611 27 ft 17 kts 327°
2026-05-06 15:58 40.64758 -73.79671 26 ft 18 kts 327°
2026-05-06 15:58 40.64796 -73.79694 28 ft 18 kts 343°
2026-05-06 15:58 40.65056 -73.79651 26 ft 21 kts 50°
2026-05-06 15:58 40.65133 -73.79479 26 ft 22 kts 61°
2026-05-06 15:59 40.65208 -73.79294 28 ft 24 kts 76°
2026-05-06 15:59 40.65175 -73.79076 28 ft 25 kts 108°
2026-05-06 15:59 40.65137 -73.78844 29 ft 27 kts 90°
2026-05-06 15:59 40.65205 -73.78615 30 ft 26 kts 60°
2026-05-06 16:00 40.65260 -73.78380 26 ft 28 kts 110°
2026-05-06 16:00 40.65187 -73.78171 26 ft 20 kts 78°
2026-05-06 16:00 40.65202 -73.78035 25 ft 16 kts 119°
2026-05-06 16:00 40.65229 -73.77913 21 ft 18 kts 27°
2026-05-06 16:01 40.65333 -73.77830 24 ft 11 kts 46°
2026-05-06 16:01 40.65320 -73.77737 24 ft 12 kts 118°
2026-05-06 16:01 40.65276 -73.77637 25 ft 14 kts 121°
2026-05-06 16:01 40.65219 -73.77513 20 ft 17 kts 121°
2026-05-06 16:02 40.65157 -73.77375 24 ft 18 kts 121°
2026-05-06 16:02 40.65089 -73.77227 25 ft 20 kts 122°
2026-05-06 16:02 40.65017 -73.77071 26 ft 20 kts 121°
2026-05-06 16:02 40.64945 -73.76909 24 ft 21 kts 121°
2026-05-06 16:03 40.64877 -73.76756 24 ft 13 kts 110°
2026-05-06 16:03 40.64922 -73.76665 24 ft 14 kts 30°
2026-05-06 16:03 40.65013 -73.76596 24 ft 16 kts 30°
2026-05-06 16:03 40.65103 -73.76506 26 ft 17 kts 74°
2026-05-06 16:04 40.65067 -73.76405 27 ft 11 kts 121°
2026-05-06 16:04 40.65015 -73.76364 27 ft 9 kts 207°
2026-05-06 16:04 40.64931 -73.76427 24 ft 27 kts 211°
2026-05-06 16:04 40.64558 -73.76712 22 ft 95 kts 210°
2026-05-06 16:05 40.63817 -73.77284 28 ft 151 kts 213°
2026-05-06 16:05 40.62866 -73.78147 340 ft 173 kts 213°
2026-05-06 16:05 40.61887 -73.78987 1351 ft 162 kts 212°
2026-05-06 16:05 40.60935 -73.79754 2091 ft 171 kts 212°
2026-05-06 16:06 40.59834 -73.80576 2479 ft 195 kts 212°
2026-05-06 16:06 40.58593 -73.81471 3147 ft 204 kts 211°
2026-05-06 16:06 40.57327 -73.82299 4161 ft 205 kts 204°
2026-05-06 16:06 40.55879 -73.82682 4803 ft 228 kts 187°
2026-05-06 16:07 40.54268 -73.82191 5598 ft 250 kts 161°
2026-05-06 16:07 40.52882 -73.80674 6432 ft 273 kts 137°
2026-05-06 16:07 40.51680 -73.78729 7272 ft 272 kts 143°
2026-05-06 16:07 40.50363 -73.76937 8135 ft 274 kts 143°
2026-05-06 16:08 40.49034 -73.75109 8999 ft 278 kts 142°
2026-05-06 16:08 40.47699 -73.73257 9836 ft 281 kts 142°
2026-05-06 16:08 40.46339 -73.71366 10452 ft 291 kts 142°
2026-05-06 16:08 40.44902 -73.69374 10791 ft 310 kts 142°
2026-05-06 16:09 40.43382 -73.67265 11222 ft 325 kts 142°
2026-05-06 16:09 40.41819 -73.65086 11819 ft 331 kts 142°
2026-05-06 16:09 40.40232 -73.62864 12535 ft 337 kts 141°
2026-05-06 16:09 40.38618 -73.60606 13239 ft 342 kts 141°
2026-05-06 16:10 40.36984 -73.58317 13908 ft 347 kts 141°
2026-05-06 16:10 40.35319 -73.55988 14515 ft 352 kts 141°
2026-05-06 16:10 40.33633 -73.53629 15152 ft 357 kts 141°
2026-05-06 16:10 40.31919 -73.51235 15765 ft 362 kts 141°
2026-05-06 16:11 40.30183 -73.48811 16370 ft 367 kts 141°
2026-05-06 16:11 40.28421 -73.46353 16957 ft 372 kts 141°
2026-05-06 16:11 40.26638 -73.43866 17536 ft 377 kts 141°
2026-05-06 16:11 40.24860 -73.41390 18106 ft 382 kts 141°
2026-05-06 16:12 40.22952 -73.38965 18578 ft 379 kts 151°
2026-05-06 16:12 40.20809 -73.36961 19062 ft 381 kts 152°
2026-05-06 16:12 40.18646 -73.34926 19549 ft 385 kts 152°
2026-05-06 16:12 40.16456 -73.32871 20050 ft 389 kts 152°
2026-05-06 16:13 40.14193 -73.30927 20507 ft 385 kts 162°
2026-05-06 16:13 40.11696 -73.29863 20877 ft 373 kts 180°
2026-05-06 16:13 40.09143 -73.29862 21299 ft 363 kts 197°
2026-05-06 16:13 40.06748 -73.30769 21712 ft 357 kts 211°
2026-05-06 16:14 40.04605 -73.32379 22074 ft 356 kts 219°
2026-05-06 16:14 40.03253 -73.33596 22413 ft 356 kts 221°
2026-05-06 16:14 40.01262 -73.35532 22853 ft 358 kts 223°
2026-05-06 16:14 39.99311 -73.37551 23308 ft 360 kts 224°
2026-05-06 16:15 39.96733 -73.40328 23856 ft 364 kts 225°
2026-05-06 16:15 39.94791 -73.42456 24241 ft 366 kts 226°
2026-05-06 16:15 39.92843 -73.44611 24581 ft 369 kts 226°
2026-05-06 16:15 39.91518 -73.46082 24816 ft 371 kts 226°
2026-05-06 16:16 39.89570 -73.48249 25155 ft 374 kts 226°
2026-05-06 16:16 39.87558 -73.50488 25531 ft 377 kts 226°
2026-05-06 16:16 39.85583 -73.52685 25863 ft 380 kts 227°
2026-05-06 16:16 39.83546 -73.54955 26215 ft 382 kts 227°
2026-05-06 16:17 39.81547 -73.57183 26559 ft 385 kts 227°
2026-05-06 16:17 39.79488 -73.59475 26906 ft 387 kts 227°
2026-05-06 16:17 39.77462 -73.61729 27238 ft 390 kts 227°
2026-05-06 16:17 39.75392 -73.64029 27564 ft 392 kts 227°
2026-05-06 16:18 39.73284 -73.66370 27894 ft 395 kts 227°
2026-05-06 16:18 39.71223 -73.68656 28251 ft 396 kts 227°
2026-05-06 16:18 39.69116 -73.70992 28594 ft 398 kts 227°
2026-05-06 16:18 39.67000 -73.73336 28914 ft 400 kts 227°
2026-05-06 16:19 39.64875 -73.75688 29217 ft 402 kts 227°
2026-05-06 16:19 39.62741 -73.78048 29552 ft 404 kts 227°
2026-05-06 16:19 39.60602 -73.80411 29845 ft 406 kts 227°
2026-05-06 16:19 39.58448 -73.82790 30131 ft 408 kts 227°
2026-05-06 16:20 39.56278 -73.85184 30396 ft 410 kts 227°
2026-05-06 16:20 39.54103 -73.87581 30664 ft 412 kts 228°
2026-05-06 16:20 39.51914 -73.89992 30935 ft 413 kts 228°
2026-05-06 16:20 39.49720 -73.92406 31194 ft 415 kts 228°
2026-05-06 16:21 39.47516 -73.94828 31446 ft 416 kts 228°
2026-05-06 16:21 39.45308 -73.97253 31738 ft 417 kts 228°
2026-05-06 16:21 39.43099 -73.99678 32103 ft 415 kts 229°
2026-05-06 16:21 39.40908 -74.02080 32491 ft 413 kts 229°
2026-05-06 16:22 39.38724 -74.04470 32969 ft 409 kts 229°
2026-05-06 16:22 39.36560 -74.06836 33375 ft 407 kts 230°
2026-05-06 16:22 39.34424 -74.09170 33670 ft 407 kts 230°
2026-05-06 16:22 39.32262 -74.11528 33959 ft 407 kts 230°
2026-05-06 16:23 39.30102 -74.13884 34233 ft 406 kts 231°
2026-05-06 16:23 39.27944 -74.16236 34512 ft 404 kts 231°
2026-05-06 16:23 39.25801 -74.18569 34800 ft 403 kts 231°
2026-05-06 16:23 39.23660 -74.20899 35073 ft 402 kts 231°
2026-05-06 16:24 39.21523 -74.23222 35338 ft 400 kts 231°
2026-05-06 16:24 39.19398 -74.25530 35591 ft 399 kts 232°
2026-05-06 16:24 39.17267 -74.27842 35803 ft 398 kts 232°
2026-05-06 16:24 39.15149 -74.30139 35947 ft 399 kts 232°
2026-05-06 16:25 39.10890 -74.34751 35954 ft 399 kts 232°
2026-05-06 16:25 39.06657 -74.39327 35945 ft 394 kts 232°
2026-05-06 16:26 39.02500 -74.43816 35950 ft 393 kts 232°
2026-05-06 16:26 38.98311 -74.48332 35938 ft 393 kts 232°
2026-05-06 16:27 38.94136 -74.52877 35946 ft 391 kts 234°
2026-05-06 16:27 38.90119 -74.57605 35956 ft 391 kts 234°
2026-05-06 16:28 38.86086 -74.62310 35953 ft 391 kts 234°
2026-05-06 16:28 38.82051 -74.67005 35961 ft 391 kts 234°
2026-05-06 16:29 38.78040 -74.71664 35914 ft 392 kts 234°
2026-05-06 16:29 38.73879 -74.76279 35958 ft 400 kts 231°
2026-05-06 16:30 38.70263 -74.80041 35951 ft 399 kts 231°
2026-05-06 16:30 38.65276 -74.85260 35958 ft 399 kts 231°
2026-05-06 16:31 38.60979 -74.89753 35957 ft 399 kts 231°
2026-05-06 16:31 38.56670 -74.94252 35957 ft 400 kts 231°
2026-05-06 16:32 38.52396 -74.98789 35965 ft 397 kts 233°
2026-05-06 16:32 38.48218 -75.03414 35980 ft 397 kts 233°
2026-05-06 16:33 38.43814 -75.07711 36004 ft 404 kts 229°
2026-05-06 16:34 38.37069 -75.14124 35976 ft 403 kts 229°
2026-05-06 16:34 38.32576 -75.18406 35986 ft 403 kts 229°
2026-05-06 16:35 38.28082 -75.22684 35990 ft 403 kts 229°
2026-05-06 16:35 38.23594 -75.26950 35986 ft 403 kts 229°
2026-05-06 16:36 38.19097 -75.31217 35974 ft 403 kts 229°
2026-05-06 16:36 38.14611 -75.35468 35984 ft 407 kts 229°
2026-05-06 16:37 38.10067 -75.39766 35975 ft 406 kts 229°
2026-05-06 16:37 38.05516 -75.44034 35974 ft 408 kts 227°
2026-05-06 16:38 38.00885 -75.48069 35979 ft 401 kts 227°
2026-05-06 16:38 37.96287 -75.52097 35990 ft 403 kts 227°
2026-05-06 16:39 37.91653 -75.56151 36000 ft 404 kts 227°
2026-05-06 16:39 37.87049 -75.60141 35992 ft 409 kts 223°
2026-05-06 16:39 37.84333 -75.61635 35976 ft 435 kts 208°
2026-05-06 16:40 37.81291 -75.62198 35998 ft 462 kts 193°
2026-05-06 16:40 37.78014 -75.61952 36002 ft 475 kts 188°
2026-05-06 16:40 37.74714 -75.61641 35980 ft 475 kts 188°
2026-05-06 16:41 37.68180 -75.61228 35976 ft 454 kts 200°
2026-05-06 16:41 37.62051 -75.62479 35972 ft 448 kts 202°
2026-05-06 16:42 37.55903 -75.63772 35999 ft 448 kts 202°
2026-05-06 16:42 37.49755 -75.65096 35996 ft 447 kts 202°
2026-05-06 16:43 37.43613 -75.66420 35995 ft 447 kts 202°
2026-05-06 16:43 37.37488 -75.67737 35996 ft 447 kts 202°
2026-05-06 16:44 37.31357 -75.69054 35972 ft 447 kts 202°
2026-05-06 16:44 37.25186 -75.70378 35998 ft 452 kts 201°
2026-05-06 16:45 37.19018 -75.71698 36002 ft 452 kts 201°
2026-05-06 16:45 37.12829 -75.73021 36007 ft 452 kts 201°
2026-05-06 16:46 37.06670 -75.74460 35985 ft 440 kts 210°
2026-05-06 16:46 37.03959 -75.75992 36022 ft 422 kts 220°
2026-05-06 16:46 37.01340 -75.77717 36000 ft 426 kts 219°
2026-05-06 16:47 36.96133 -75.81237 36007 ft 425 kts 219°
2026-05-06 16:47 36.90963 -75.84803 36018 ft 424 kts 220°
2026-05-06 16:48 36.85815 -75.88365 35996 ft 424 kts 220°
2026-05-06 16:48 36.80615 -75.91959 36027 ft 429 kts 219°
2026-05-06 16:49 36.75396 -75.95559 36013 ft 428 kts 219°
2026-05-06 16:49 36.70213 -75.99130 36034 ft 428 kts 219°
2026-05-06 16:50 36.65002 -76.02714 36035 ft 428 kts 219°
2026-05-06 16:50 36.59766 -76.06311 36037 ft 432 kts 219°
2026-05-06 16:51 36.54496 -76.09925 36036 ft 432 kts 219°
2026-05-06 16:51 36.49236 -76.13526 36036 ft 432 kts 219°
2026-05-06 16:52 36.43973 -76.17124 36033 ft 431 kts 219°
2026-05-06 16:52 36.38732 -76.20701 36045 ft 434 kts 219°
2026-05-06 16:53 36.33418 -76.24322 36052 ft 435 kts 219°
2026-05-06 16:53 36.28108 -76.27935 36054 ft 435 kts 219°
2026-05-06 16:54 36.22787 -76.31549 36053 ft 436 kts 219°
2026-05-06 16:54 36.17503 -76.35133 36041 ft 437 kts 219°
2026-05-06 16:55 36.12152 -76.38757 36052 ft 439 kts 219°
2026-05-06 16:55 36.06799 -76.42377 36054 ft 439 kts 219°
2026-05-06 16:56 36.01435 -76.45997 36054 ft 439 kts 218°
2026-05-06 16:56 36.00531 -76.46607 36054 ft 439 kts 218°